Regional Weather Roundup
Issued by NWS

Home | Current Version | Previous Version | Text Only | Print | Product List | Glossary On
Versions: 1 2 3 4 5 6 7 8 9 10 11 12 13 14 15 16 17 18 19 20 21 22 23 24 25 26 27 28 29 30 31 32 33 34 35 36 37 38 39 40 41 42 43 44 45 46 47 48 49 50
000
ASUS44 KOUN 260410
RWROK

WEATHER ROUNDUP FOR OKLAHOMA
NATIONAL WEATHER SERVICE NORMAN OK
1100 PM CDT TUE JUL 25 2017

NOTE: "FAIR" INDICATES FEW OR NO CLOUDS BELOW 12,000 FEET WITH NO
      SIGNIFICANT WEATHER AND/OR OBSTRUCTIONS TO VISIBILITY.

OKZ001>007-009>012-014-015-017-260500-
NORTHWEST OKLAHOMA AND THE PANHANDLE

CITY           SKY/WX    TMP DP  RH WIND       PRES   REMARKS
GAGE           CLEAR     87  65  47 S18       30.00R
GUYMON         CLOUDY    88  60  38 S15       29.99R
ENID/WOODRING  CLEAR     86  72  62 S13       29.99R HX  92
$$

OKZ016-021>023-033>039-044-045-260500-
SOUTHWEST OKLAHOMA

CITY           SKY/WX    TMP DP  RH WIND       PRES   REMARKS
LAWTON/REGL    CLEAR     86  71  60 SE12      30.01R HX  91
LAWTON/FT SILL CLEAR     84  73  69 S9        30.01R HX  90
FREDERICK      CLEAR     84  72  67 SE10      29.97S
CLINTON        CLEAR     84  70  62 S21       30.04R
HOBART         CLEAR     86  71  60 S18       30.02R HX  91
ALTUS AFB      CLEAR     86  68  54 SE13      30.00R
$$

OKZ018>020-024>031-260500-
CENTRAL OKLAHOMA

CITY           SKY/WX    TMP DP  RH WIND       PRES   REMARKS
OKLAHOMA CITY  CLEAR     82  72  71 S10       30.04R
OKC/WILEY POST CLEAR     86  73  65 S16       30.03R HX  93
OKC/TINKER AFB CLEAR     84  72  68 S8        30.04R
STILLWATER     CLEAR     85  71  63 S15       30.02R HX  90
GUTHRIE        CLEAR     85  72  65 S12       30.02R HX  91
$$

OKZ008-013-054>072-260500-
NORTHEAST OKLAHOMA

CITY           SKY/WX    TMP DP  RH WIND       PRES   REMARKS
TULSA          CLEAR     88  74  63 S16       30.01R HX  96
TULSA/JONES    CLEAR     87  73  62 S8        30.02R HX  94
PONCA CITY     CLEAR     87  70  56 S15G24    30.00R HX  92
BARTLESVILLE   CLEAR     82  71  69 S5        30.03R
MUSKOGEE       CLEAR     81  74  79 S5        30.05R
$$

OKZ032-040>043-046>053-073>077-260500-
SOUTH CENTRAL/SOUTHEAST OKLAHOMA

CITY           SKY/WX    TMP DP  RH WIND       PRES   REMARKS
ARDMORE/DWNTWN CLEAR     82  70  65 S6        30.03S
MCALESTER      CLEAR     83  74  74 S3        30.06R
$$





USA.gov is the U.S. government's official web portal to all federal, state and local government web resources and services.